Weather History for 06786 - April, 2014

Change the Weather History Date:

Sunday, April 6, 2014

  Actual Average Record
Temperature  
Mean Temperature 58 °F -  
Max Temperature 65 °F - - ()
Min Temperature 50 °F - - ()
Degree Days  
Heating Degree Days 8    
Growing Degree Days 8 (Base 50)    
Moisture  
Dew Point 47 °F    
Average Humidity 66    
Maximum Humidity 89    
Minimum Humidity 38    
Precipitation  
Precipitation 0.02 in - - ()
Sea Level Pressure  
Sea Level Pressure 30.11 in    
Wind  
Wind Speed 3 mph ()    
Max Wind Speed 13 mph    
Max Gust Speed -    
Visibility 5.4 miles    
Events Rain    
T = Trace of Precipitation, MM = Missing Value Source: Averaged Metar Reports

Daily Weather History Graph

Daily Weather History Graph

Search for Another Location

Airport or City:

Trip Planner

Search our weather history database for the weather conditions in past years. The results will help you decide how hot, cold, wet, or windy it might be!

Date:

Astronomy

Apr. 06, 2014 Rise Set
Actual Time 6:51 AM CEST 7:57 PM CEST
Civil Twilight 6:20 AM CEST 8:28 PM CEST
Nautical Twilight 5:43 AM CEST 9:06 PM CEST
Astronomical Twilight 5:04 AM CEST 9:45 PM CEST
Moon 11:25 AM CEST (4/6) 1:54 AM CEST (4/6)
Length of Visible Light 14h 07m
Length of Day
13h 05m
Waxing Crescent, 41% of the Moon is Illuminated
Apr 6
Waxing Crescent
Apr 7
First Quarter
Apr 15
Full
Apr 22
Last Quarter
Apr 29
New

Hourly Weather History & Observations

Time (CEST) Temp. Dew Point Humidity Pressure Visibility Wind Dir Wind Speed Gust Speed Precip Events Conditions
12:00 AM 52 °F 48 °F 80% 30.11 in - North 2.3 mph - -  
1:00 AM 52 °F 48 °F 82% 30.12 in - North 2.3 mph - -  
2:00 AM 52 °F 48 °F 82% 30.12 in 2 mi NNE 3.5 mph - -   Haze
3:00 AM 52 °F 48 °F 82% 30.12 in - NE 2.3 mph - -  
4:00 AM 52 °F 48 °F 83% 30.12 in - NE 2.3 mph - -  
5:00 AM 51 °F 49 °F 89% 30.12 in 2 mi NE 2.3 mph - - Rain Light Drizzle
6:00 AM 51 °F 49 °F 88% 30.12 in - East 3.5 mph - -  
7:00 AM 51 °F 49 °F 88% 30.13 in - NE 3.5 mph - -  
8:00 AM 51 °F 48 °F 87% 30.15 in 2 mi NNE 2.3 mph - -   Mist
9:00 AM 52 °F 49 °F 85% 30.15 in - NE 2.3 mph - -  
10:00 AM 53 °F 48 °F 79% 30.16 in - North 2.3 mph - -  
11:00 AM 54 °F 47 °F 72% 30.16 in 4 mi North 1.2 mph - -   Mist
12:00 PM 58 °F 46 °F 56% 30.13 in - SSE 2.3 mph - -  
1:00 PM 61 °F 46 °F 47% 30.10 in - South 3.5 mph - -  
2:00 PM 64 °F 46 °F 41% 30.07 in 9 mi SSE 3.5 mph - -   Mist
3:00 PM 64 °F 45 °F 39% 30.06 in - NNE 8.1 mph - -  
4:00 PM 64 °F 44 °F 38% 30.04 in - NNE 6.9 mph - -  
5:00 PM 64 °F 45 °F 38% 30.04 in 12 mi NNE 9.2 mph - -   Partly Cloudy
6:00 PM 63 °F 46 °F 43% 30.04 in - NNE 12.7 mph - -  
7:00 PM 60 °F 46 °F 50% 30.06 in - NNE 6.9 mph - -  
8:00 PM 58 °F 46 °F 54% 30.09 in 9 mi NNE 6.9 mph - -   Haze
9:00 PM 58 °F 46 °F 55% 30.13 in - ENE 4.6 mph - -  
10:00 PM 55 °F 46 °F 64% 30.15 in - NW 1.2 mph - -  
11:00 PM 51 °F 45 °F 72% 30.19 in 3 mi East 1.2 mph - -   Haze